Location: Bletchingley
(51.2333°N, 0.1000°W)
Time: 15:28:13
(UTC+00:00)

Cosmos 2266 Rocket - Pass Details

Date: 25 January 2021
Orbit: 934 x 1008 km, 82.9° (Epoch: 05 March)

Event Time Altitude Azimuth Distance (km) Brightness Sun altitude
Rises 06:04:58 0° 352° (N) 3,621 6.8 -15.8°
Reaches altitude 10° 06:07:34 10° 358° (N) 2,666 6.2 -15.4°
Maximum altitude 06:13:27 49° 73° (ENE) 1,198 4.9 -14.5°
Drops below altitude 10° 06:19:15 10° 148° (SSE) 2,641 6.9 -13.6°
Sets 06:21:49 0° 153° (SSE) 3,583 7.6 -13.2°
